• In Russia
  • List of Countries
  • For 7 days
  • Water Temperature
  • Weather Map
  • Weather Widgets
  • user-avatar
    Login

    Hourly Weather Zaranj

    Today, 23 September, Monday

    Time Temperature Precipitation Wind Pressure Humidity
    00:00 +28°C° 0 mm 12 mps 715 mmHg 35%
    01:00 +27°C° 0 mm 15 mps 716 mmHg 46%
    02:00 +26°C° 0 mm 15 mps 716 mmHg 47%
    03:00 +24°C° 0 mm 15 mps 716 mmHg 47%
    04:00 +23°C° 0 mm 14 mps 716 mmHg 50%
    05:00 +23°C° 0 mm 13 mps 717 mmHg 49%
    06:00 +23°C° 0 mm 12 mps 718 mmHg 49%
    07:00 +23°C° 0 mm 12 mps 718 mmHg 48%
    08:00 +26°C° 0 mm 11 mps 718 mmHg 43%
    09:00 +28°C° 0 mm 11 mps 718 mmHg 37%
    10:00 +31°C° 0 mm 10 mps 719 mmHg 29%
    11:00 +33°C° 0 mm 9 mps 718 mmHg 26%
    12:00 +35°C° 0 mm 8 mps 718 mmHg 22%
    13:00 +38°C° 0 mm 7 mps 717 mmHg 18%
    14:00 +38°C° 0 mm 6 mps 717 mmHg 17%
    15:00 +39°C° 0 mm 5 mps 716 mmHg 16%
    16:00 +40°C° 0 mm 4 mps 716 mmHg 14%
    17:00 +36°C° 0 mm 4 mps 716 mmHg 19%
    18:00 +34°C° 0 mm 5 mps 716 mmHg 25%
    19:00 +30°C° 0 mm 5 mps 716 mmHg 30%
    20:00 +29°C° 0 mm 5 mps 716 mmHg 31%
    21:00 +29°C° 0 mm 5 mps 716 mmHg 33%
    22:00 +28°C° 0 mm 6 mps 716 mmHg 35%
    23:00 +27°C° 0 mm 5 mps 716 mmHg 36%

    Tomorrow, 24 September, Tuesday

    Time Temperature Precipitation Wind Pressure Humidity
    00:00 +26°C° 0 mm 5 mps 716 mmHg 37%
    01:00 +25°C° 0 mm 5 mps 716 mmHg 38%
    02:00 +25°C° 0 mm 4 mps 715 mmHg 40%
    03:00 +23°C° 0 mm 4 mps 715 mmHg 41%
    04:00 +23°C° 0 mm 4 mps 715 mmHg 43%
    05:00 +23°C° 0 mm 4 mps 716 mmHg 42%
    06:00 +25°C° 0 mm 4 mps 716 mmHg 41%
    07:00 +25°C° 0 mm 5 mps 717 mmHg 40%
    08:00 +28°C° 0 mm 4 mps 717 mmHg 34%
    09:00 +30°C° 0 mm 4 mps 717 mmHg 27%
    10:00 +34°C° 0 mm 3 mps 718 mmHg 21%
    11:00 +35°C° 0 mm 3 mps 717 mmHg 18%
    12:00 +37°C° 0 mm 2 mps 716 mmHg 15%
    13:00 +39°C° 0 mm 1 mps 716 mmHg 12%
    14:00 +40°C° 0 mm 1 mps 716 mmHg 10%
    15:00 +40°C° 0 mm 1 mps 715 mmHg 9%
    16:00 +41°C° 0 mm 1 mps 715 mmHg 8%
    17:00 +36°C° 0 mm 1 mps 715 mmHg 11%
    18:00 +32°C° 0 mm 1 mps 714 mmHg 13%
    19:00 +28°C° 0 mm 1 mps 714 mmHg 16%
    20:00 +28°C° 0 mm 1 mps 714 mmHg 17%
    21:00 +27°C° 0 mm 1 mps 714 mmHg 17%
    22:00 +27°C° 0 mm 1 mps 715 mmHg 17%
    23:00 +27°C° 0 mm 2 mps 715 mmHg 18%

    Day after tomorrow, 25 September, Wednesday

    Time Temperature Precipitation Wind Pressure Humidity
    00:00 +27°C° 0 mm 2 mps 714 mmHg 19%
    01:00 +27°C° 0 mm 3 mps 714 mmHg 19%
    02:00 +27°C° 0 mm 4 mps 715 mmHg 24%
    03:00 +26°C° 0 mm 5 mps 715 mmHg 29%
    04:00 +26°C° 0 mm 6 mps 715 mmHg 34%
    05:00 +26°C° 0 mm 5 mps 715 mmHg 33%
    06:00 +26°C° 0 mm 5 mps 716 mmHg 32%
    07:00 +26°C° 0 mm 5 mps 716 mmHg 32%
    08:00 +29°C° 0 mm 4 mps 717 mmHg 26%
    09:00 +32°C° 0 mm 4 mps 717 mmHg 21%
    10:00 +35°C° 0 mm 3 mps 718 mmHg 15%
    11:00 +37°C° 0 mm 2 mps 717 mmHg 13%
    12:00 +39°C° 0 mm 1 mps 717 mmHg 11%
    13:00 +41°C° 0 mm 1 mps 717 mmHg 9%
    14:00 +38°C° 0 mm 0 mps 716 mmHg 8%
    15:00 +39°C° 0 mm 0 mps 716 mmHg 8%
    16:00 +39°C° 0 mm 0 mps 716 mmHg 8%
    17:00 +39°C° 0 mm 1 mps 715 mmHg 10%
    18:00 +35°C° 0 mm 1 mps 715 mmHg 13%
    19:00 +31°C° 0 mm 2 mps 715 mmHg 15%
    20:00 +31°C° 0 mm 2 mps 715 mmHg 15%
    21:00 +30°C° 0 mm 2 mps 715 mmHg 16%
    22:00 +30°C° 0 mm 2 mps 716 mmHg 16%
    23:00 +29°C° 0 mm 2 mps 715 mmHg 16%

    26 September, Thursday

    Time Temperature Precipitation Wind Pressure Humidity
    00:00 +28°C° 0 mm 2 mps 715 mmHg 17%
    01:00 +27°C° 0 mm 1 mps 715 mmHg 17%
    02:00 +27°C° 0 mm 2 mps 715 mmHg 17%
    03:00 +27°C° 0 mm 2 mps 716 mmHg 17%
    04:00 +27°C° 0 mm 2 mps 716 mmHg 16%
    05:00 +28°C° 0 mm 2 mps 716 mmHg 16%
    06:00 +29°C° 0 mm 2 mps 717 mmHg 16%
    07:00 +30°C° 0 mm 2 mps 717 mmHg 16%
    08:00 +34°C° 0 mm 2 mps 718 mmHg 15%
    09:00 +36°C° 0 mm 2 mps 718 mmHg 13%
    10:00 +39°C° 0 mm 2 mps 718 mmHg 11%
    11:00 +40°C° 0 mm 2 mps 718 mmHg 10%
    12:00 +42°C° 0 mm 1 mps 718 mmHg 9%
    13:00 +43°C° 0 mm 1 mps 717 mmHg 8%
    14:00 +43°C° 0 mm 1 mps 717 mmHg 8%
    15:00 +44°C° 0 mm 1 mps 716 mmHg 8%
    16:00 +44°C° 0 mm 1 mps 716 mmHg 8%
    17:00 +41°C° 0 mm 1 mps 716 mmHg 10%
    18:00 +38°C° 0 mm 2 mps 715 mmHg 12%
    19:00 +35°C° 0 mm 2 mps 715 mmHg 14%
    20:00 +34°C° 0 mm 2 mps 715 mmHg 15%
    21:00 +31°C° 0 mm 1 mps 715 mmHg 15%
    22:00 +30°C° 0 mm 1 mps 715 mmHg 16%
    23:00 +30°C° 0 mm 1 mps 715 mmHg 17%

    27 September, Friday

    Time Temperature Precipitation Wind Pressure Humidity
    00:00 +30°C° 0 mm 2 mps 715 mmHg 17%
    01:00 +29°C° 0 mm 2 mps 715 mmHg 18%
    02:00 +29°C° 0 mm 2 mps 715 mmHg 18%
    03:00 +28°C° 0 mm 2 mps 715 mmHg 19%
    04:00 +28°C° 0 mm 2 mps 715 mmHg 20%
    05:00 +29°C° 0 mm 3 mps 716 mmHg 20%
    06:00 +30°C° 0 mm 4 mps 716 mmHg 21%
    07:00 +32°C° 0 mm 5 mps 717 mmHg 22%
    08:00 +34°C° 0 mm 5 mps 717 mmHg 18%
    09:00 +38°C° 0 mm 6 mps 717 mmHg 14%
    10:00 +41°C° 0 mm 6 mps 718 mmHg 10%
    11:00 +42°C° 0 mm 6 mps 717 mmHg 9%
    12:00 +45°C° 0 mm 5 mps 717 mmHg 7%
    13:00 +47°C° 0 mm 5 mps 716 mmHg 6%
    14:00 +47°C° 0 mm 5 mps 716 mmHg 5%
    15:00 +47°C° 0 mm 4 mps 715 mmHg 5%
    16:00 +48°C° 0 mm 4 mps 715 mmHg 5%
    17:00 +43°C° 0 mm 3 mps 714 mmHg 6%
    18:00 +38°C° 0 mm 3 mps 714 mmHg 8%
    19:00 +34°C° 0 mm 2 mps 714 mmHg 10%
    20:00 +34°C° 0 mm 2 mps 714 mmHg 10%
    21:00 +34°C° 0 mm 3 mps 714 mmHg 10%
    22:00 +34°C° 0 mm 3 mps 714 mmHg 11%
    23:00 +33°C° 0 mm 4 mps 714 mmHg 13%

    28 September, Saturday

    Time Temperature Precipitation Wind Pressure Humidity
    00:00 +32°C° 0 mm 4 mps 714 mmHg 15%
    01:00 +32°C° 0 mm 4 mps 714 mmHg 17%
    02:00 +30°C° 0 mm 4 mps 714 mmHg 18%
    03:00 +29°C° 0 mm 4 mps 714 mmHg 19%
    04:00 +29°C° 0 mm 4 mps 714 mmHg 20%
    05:00 +30°C° 0 mm 4 mps 714 mmHg 19%
    06:00 +30°C° 0 mm 4 mps 714 mmHg 18%
    07:00 +32°C° 0 mm 4 mps 714 mmHg 17%
    08:00 +35°C° 0 mm 4 mps 715 mmHg 13%
    09:00 +39°C° 0 mm 5 mps 715 mmHg 10%
    10:00 +43°C° 0 mm 5 mps 715 mmHg 7%
    11:00 +45°C° 0 mm 5 mps 715 mmHg 6%
    12:00 +46°C° 0 mm 5 mps 714 mmHg 5%
    13:00 +48°C° 0 mm 4 mps 714 mmHg 4%
    14:00 +47°C° 0 mm 5 mps 713 mmHg 4%
    15:00 +47°C° 0 mm 5 mps 713 mmHg 4%
    16:00 +47°C° 0 mm 5 mps 712 mmHg 4%
    17:00 +42°C° 0 mm 4 mps 712 mmHg 5%
    18:00 +37°C° 0 mm 3 mps 712 mmHg 7%
    19:00 +34°C° 0 mm 2 mps 712 mmHg 8%
    20:00 +32°C° 0 mm 2 mps 712 mmHg 9%
    21:00 +33°C° 0 mm 3 mps 712 mmHg 10%
    22:00 +33°C° 0 mm 3 mps 713 mmHg 12%
    23:00 +31°C° 0 mm 3 mps 713 mmHg 12%
    Show more